When you browse on this site, cookies collect data to enhance your experience and personalize the content and advertising you see.
Visit our Privacy Policy to learn more. By continuing to use the site, you agree to this use of cookies and data.
  • In United Kingdom
  • List of Countries
  • For 7 days
  • Water Temperature
  • Weather Map
  • Weather Widgets
  • user-avatar
    Login

    Hourly Weather San Juan

    Today, 28 May, Thursday

    Time Temperature Precipitation Wind Pressure Humidity
    00:00 +13°C° 0 mm 3 mps 704 mmHg 44%
    01:00 +14°C° 0 mm 2 mps 704 mmHg 44%
    02:00 +13°C° 0 mm 2 mps 704 mmHg 46%
    03:00 +12°C° 0 mm 1 mps 704 mmHg 48%
    04:00 +12°C° 0 mm 1 mps 703 mmHg 49%
    05:00 +12°C° 0 mm 1 mps 704 mmHg 50%
    06:00 +12°C° 0 mm 1 mps 704 mmHg 50%
    07:00 +12°C° 0 mm 1 mps 704 mmHg 51%
    08:00 +14°C° 0 mm 1 mps 704 mmHg 46%
    09:00 +16°C° 0 mm 1 mps 704 mmHg 41%
    10:00 +18°C° 0 mm 1 mps 704 mmHg 36%
    11:00 +19°C° 0 mm 1 mps 704 mmHg 34%
    12:00 +20°C° 0 mm 1 mps 703 mmHg 33%
    13:00 +20°C° 0 mm 2 mps 703 mmHg 31%
    14:00 +20°C° 0 mm 2 mps 703 mmHg 31%
    15:00 +20°C° 0 mm 2 mps 703 mmHg 31%
    16:00 +20°C° 0 mm 2 mps 703 mmHg 32%
    17:00 +18°C° 0 mm 2 mps 703 mmHg 36%
    18:00 +18°C° 0 mm 1 mps 703 mmHg 40%
    19:00 +15°C° 0 mm 1 mps 703 mmHg 44%
    20:00 +14°C° 0 mm 1 mps 703 mmHg 46%
    21:00 +14°C° 0 mm 1 mps 703 mmHg 47%
    22:00 +12°C° 0 mm 0 mps 703 mmHg 49%
    23:00 +13°C° 0 mm 1 mps 703 mmHg 48%

    Tomorrow, 29 May, Friday

    Time Temperature Precipitation Wind Pressure Humidity
    00:00 +13°C° 0 mm 1 mps 703 mmHg 48%
    01:00 +13°C° 0 mm 2 mps 703 mmHg 47%
    02:00 +13°C° 0 mm 2 mps 703 mmHg 50%
    03:00 +12°C° 0 mm 2 mps 703 mmHg 52%
    04:00 +12°C° 0 mm 2 mps 703 mmHg 55%
    05:00 +12°C° 0 mm 2 mps 703 mmHg 55%
    06:00 +12°C° 0 mm 2 mps 703 mmHg 55%
    07:00 +12°C° 0 mm 2 mps 703 mmHg 55%
    08:00 +13°C° 0 mm 2 mps 703 mmHg 51%
    09:00 +14°C° 0 mm 3 mps 704 mmHg 46%
    10:00 +15°C° 0 mm 4 mps 704 mmHg 42%
    11:00 +17°C° 0 mm 4 mps 703 mmHg 41%
    12:00 +18°C° 0 mm 4 mps 703 mmHg 39%
    13:00 +19°C° 0 mm 4 mps 702 mmHg 38%
    14:00 +18°C° 0 mm 3 mps 702 mmHg 38%
    15:00 +18°C° 0 mm 3 mps 702 mmHg 39%
    16:00 +18°C° 0 mm 3 mps 702 mmHg 40%
    17:00 +17°C° 0 mm 3 mps 702 mmHg 43%
    18:00 +16°C° 0 mm 3 mps 702 mmHg 47%
    19:00 +14°C° 0 mm 3 mps 703 mmHg 50%
    20:00 +13°C° 0 mm 3 mps 703 mmHg 54%
    21:00 +13°C° 0 mm 4 mps 703 mmHg 58%
    22:00 +12°C° 0 mm 4 mps 703 mmHg 62%
    23:00 +11°C° 0 mm 4 mps 703 mmHg 68%

    Day after tomorrow, 30 May, Saturday

    Time Temperature Precipitation Wind Pressure Humidity
    00:00 +11°C° 0 mm 3 mps 703 mmHg 74%
    01:00 +10°C° 0 mm 3 mps 703 mmHg 81%
    02:00 +10°C° 0 mm 3 mps 703 mmHg 83%
    03:00 +9°C° 0 mm 3 mps 702 mmHg 85%
    04:00 +9°C° 0 mm 3 mps 702 mmHg 88%
    05:00 +9°C° 0 mm 3 mps 703 mmHg 86%
    06:00 +10°C° 0 mm 3 mps 704 mmHg 85%
    07:00 +10°C° 0 mm 3 mps 704 mmHg 84%
    08:00 +11°C° 0 mm 3 mps 704 mmHg 80%
    09:00 +11°C° 0 mm 4 mps 704 mmHg 77%
    10:00 +12°C° 0 mm 4 mps 705 mmHg 73%
    11:00 +12°C° 0 mm 5 mps 704 mmHg 71%
    12:00 +12°C° 0 mm 5 mps 704 mmHg 69%
    13:00 +13°C° 0 mm 6 mps 704 mmHg 67%
    14:00 +11°C° 0 mm 6 mps 704 mmHg 68%
    15:00 +10°C° 0 mm 7 mps 704 mmHg 69%
    16:00 +9°C° 0 mm 8 mps 704 mmHg 71%
    17:00 +8°C° 0 mm 7 mps 705 mmHg 72%
    18:00 +8°C° 0 mm 6 mps 706 mmHg 73%
    19:00 +8°C° 0 mm 5 mps 706 mmHg 73%
    20:00 +8°C° 0.1 mm 5 mps 707 mmHg 73%
    21:00 +7°C° 0.1 mm 5 mps 707 mmHg 72%
    22:00 +7°C° 0.1 mm 5 mps 707 mmHg 72%
    23:00 +7°C° 0.2 mm 4 mps 708 mmHg 69%

    31 May, Sunday

    Time Temperature Precipitation Wind Pressure Humidity
    00:00 +8°C° 0.2 mm 3 mps 708 mmHg 67%
    01:00 +8°C° 0.2 mm 3 mps 708 mmHg 65%
    02:00 +8°C° 0 mm 3 mps 708 mmHg 65%
    03:00 +7°C° 0 mm 3 mps 708 mmHg 66%
    04:00 +6°C° 0 mm 4 mps 707 mmHg 67%
    05:00 +6°C° 0 mm 4 mps 708 mmHg 66%
    06:00 +6°C° 0 mm 4 mps 708 mmHg 64%
    07:00 +5°C° 0 mm 3 mps 709 mmHg 63%
    08:00 +7°C° 0 mm 3 mps 709 mmHg 59%
    09:00 +8°C° 0 mm 3 mps 709 mmHg 54%
    10:00 +9°C° 0 mm 2 mps 710 mmHg 50%
    11:00 +10°C° 0 mm 2 mps 709 mmHg 47%
    12:00 +12°C° 0 mm 2 mps 709 mmHg 44%
    13:00 +12°C° 0 mm 2 mps 708 mmHg 42%
    14:00 +12°C° 0 mm 2 mps 708 mmHg 42%
    15:00 +12°C° 0 mm 2 mps 708 mmHg 42%
    16:00 +12°C° 0 mm 2 mps 708 mmHg 42%
    17:00 +10°C° 0 mm 2 mps 709 mmHg 46%
    18:00 +10°C° 0 mm 1 mps 709 mmHg 49%
    19:00 +9°C° 0 mm 1 mps 709 mmHg 53%
    20:00 +8°C° 0 mm 1 mps 709 mmHg 54%
    21:00 +8°C° 0 mm 1 mps 709 mmHg 56%
    22:00 +6°C° 0 mm 0 mps 710 mmHg 58%
    23:00 +7°C° 0 mm 1 mps 710 mmHg 59%

    1 June, Monday

    Time Temperature Precipitation Wind Pressure Humidity
    00:00 +7°C° 0 mm 1 mps 709 mmHg 61%
    01:00 +6°C° 0 mm 1 mps 709 mmHg 62%
    02:00 +6°C° 0 mm 1 mps 709 mmHg 66%
    03:00 +6°C° 0 mm 1 mps 709 mmHg 70%
    04:00 +5°C° 0 mm 1 mps 708 mmHg 74%
    05:00 +5°C° 0 mm 1 mps 708 mmHg 74%
    06:00 +5°C° 0 mm 1 mps 709 mmHg 74%
    07:00 +5°C° 0 mm 1 mps 709 mmHg 74%
    08:00 +7°C° 0 mm 1 mps 709 mmHg 65%
    09:00 +9°C° 0 mm 1 mps 709 mmHg 56%
    10:00 +10°C° 0 mm 2 mps 709 mmHg 48%
    11:00 +13°C° 0 mm 2 mps 708 mmHg 43%
    12:00 +14°C° 0 mm 2 mps 708 mmHg 39%
    13:00 +16°C° 0 mm 2 mps 707 mmHg 34%
    14:00 +16°C° 0 mm 2 mps 707 mmHg 34%
    15:00 +16°C° 0 mm 2 mps 707 mmHg 34%
    16:00 +16°C° 0 mm 2 mps 707 mmHg 33%
    17:00 +14°C° 0 mm 1 mps 707 mmHg 38%
    18:00 +12°C° 0 mm 1 mps 707 mmHg 43%
    19:00 +9°C° 0 mm 0 mps 707 mmHg 48%
    20:00 +9°C° 0 mm 0 mps 707 mmHg 50%
    21:00 +9°C° 0 mm 0 mps 706 mmHg 51%
    22:00 +8°C° 0 mm 0 mps 706 mmHg 53%
    23:00 +8°C° 0 mm 0 mps 706 mmHg 54%

    2 June, Tuesday

    Time Temperature Precipitation Wind Pressure Humidity
    00:00 +8°C° 0 mm 0 mps 706 mmHg 55%
    01:00 +7°C° 0 mm 0 mps 705 mmHg 56%
    02:00 +8°C° 0 mm 1 mps 705 mmHg 57%
    03:00 +8°C° 0 mm 1 mps 705 mmHg 58%
    04:00 +8°C° 0 mm 1 mps 704 mmHg 59%
    05:00 +7°C° 0 mm 2 mps 705 mmHg 57%
    06:00 +7°C° 0 mm 2 mps 705 mmHg 56%
    07:00 +7°C° 0 mm 3 mps 706 mmHg 54%
    08:00 +8°C° 0 mm 4 mps 706 mmHg 48%
    09:00 +10°C° 0 mm 6 mps 707 mmHg 42%
    10:00 +12°C° 0 mm 7 mps 708 mmHg 36%
    11:00 +14°C° 0 mm 7 mps 707 mmHg 34%
    12:00 +15°C° 0 mm 7 mps 707 mmHg 32%
    13:00 +15°C° 0 mm 7 mps 707 mmHg 30%
    14:00 +15°C° 0 mm 7 mps 707 mmHg 30%
    15:00 +15°C° 0 mm 6 mps 708 mmHg 30%
    16:00 +15°C° 0 mm 6 mps 708 mmHg 31%
    17:00 +14°C° 0 mm 6 mps 709 mmHg 34%
    18:00 +13°C° 0 mm 5 mps 709 mmHg 37%
    19:00 +10°C° 0 mm 5 mps 710 mmHg 40%
    20:00 +10°C° 0 mm 5 mps 710 mmHg 42%
    21:00 +10°C° 0 mm 4 mps 711 mmHg 44%
    22:00 +10°C° 0 mm 4 mps 711 mmHg 45%
    23:00 +8°C° 0 mm 4 mps 711 mmHg 44%
    Show more